Location: *
(38.4303°S, 157.0822°W)
Time: 18:02:07
(UTC+00:00)

DMSP B5D2-2 - Pass Details

Date: 04 August 2024
Orbit: 787 x 802 km, 98.3° (Epoch: 06 September)

Event Time Altitude Azimuth Distance (km) Brightness Sun altitude
Rises 15:34:45 0° 174° (S) 3,351 7.3 -22.0°
Reaches altitude 10° 15:37:11 10° 179° (S) 2,412 6.5 -21.5°
Maximum altitude 15:42:16 47° 251° (WSW) 1,068 4.3 -20.5°
Enters shadow 15:44:41 28° 308° (NW) 1,478 5.1 -20.0°
